OneWeb SL0650

operational
NORAD ID: 55813 Int'l Des: 2023-029 Owner: ONEWEBN Country: UK Constellation: oneweb
LEOCIRCULARPOLARONEWEB_TYPE

OneWeb SL0650について

説明を読み込み中...

リアルタイム位置

3D地球を読み込み中...

次回通過

高度履歴

Altitude vs Time

uPlot chart will show altitude changes over time

軌道要素

1 55813U 23029T 26035.09505312 -.00000083 00000-0 -23997-3 0 9995
2 55813 87.9249 331.4717 0001438 89.3729 270.7568 13.19724758141348
Epoch: Feb 4, 2026 • Age: 8 hours

現在のステータス

高度 1190.8 km
速度 7.26 km/s
衛星直下点 39.79°N, 138.93°W
打ち上げ日 Mar 9, 2023
運用期間 2.9 years
タイプ internet

技術仕様

分類 Payload
質量 148.00 kg
乾燥質量 140.00 kg
総質量 148.00 kg
長さ 1.30 m
直径 1.00 m
スパン 5.00 m
形状 Trapezoid+2 pan
製造者 ONEWUS
バスタイプ ARROW
フェーズステータス In Orbit
所有者/国 ONEWEBN/UK

大規模コンステレーション

Loading constellations...